Weather History for Amritsar, India

Change the Weather History Date:

Tuesday, November 8, 2011

  Actual Average Record
Temperature  
Mean Temperature 68 °F -  
Max Temperature 84 °F 80 °F 87 °F (2007)
Min Temperature 52 °F 54 °F 47 °F (2012)
Cooling Degree Days 3    
Growing Degree Days 18 (Base 50)    
Moisture  
Dew Point 54 °F    
Average Humidity 66    
Maximum Humidity 94    
Minimum Humidity 24    
Precipitation  
Precipitation 0.00 in - - ()
Sea Level Pressure  
Sea Level Pressure 29.97 in    
Wind  
Wind Speed 4 mph ()    
Max Wind Speed 69 mph    
Max Gust Speed -    
Visibility 2.0 miles    
Events      
Averages and records for this station are not official NWS values.
T = Trace of Precipitation, MM = Missing Value Source: Averaged Metar Reports

Daily Weather History Graph

Daily Weather History Graph

Search for Another Location

Airport:

Trip Planner

Search our weather history database for the weather conditions in past years. The results will help you decide how hot, cold, wet, or windy it might be!

Date:

Astronomy

Nov. 08, 2011 Rise Set
Actual Time 6:52 AM IST 5:36 PM IST
Civil Twilight 6:26 AM IST 6:01 PM IST
Nautical Twilight 5:57 AM IST 6:30 PM IST
Astronomical Twilight 5:29 AM IST 6:59 PM IST
Moon 3:58 PM IST (11/8) 4:31 AM IST (11/8)
Length of Visible Light 11h 34m
Length of Day
10h 44m
Waxing Gibbous, 94% of the Moon is Illuminated
Nov 8
Waxing Gibbous
Nov 11
Full
Nov 18
Last Quarter
Nov 25
New
Dec 2
First Quarter

Hourly Weather History & Observations

Time (IST) Temp. Heat Index Dew Point Humidity Pressure Visibility Wind Dir Wind Speed Gust Speed Precip Events Conditions
12:00 AM 59.0 °F - 53.6 °F 82% 29.95 in 2.2 mi Calm Calm - N/A   Haze
1:00 AM 62.6 °F - 53.6 °F 72% 29.95 in 2.2 mi Variable 1.2 mph - N/A   Haze
2:00 AM 57.2 °F - 51.8 °F 82% 29.95 in 1.9 mi Calm Calm - N/A   Haze
2:30 AM 56 °F - 52 °F 82% 29.96 in 1 mi Calm Calm - -   Haze
3:00 AM 55.4 °F - 51.8 °F 88% 29.95 in 1.6 mi Calm Calm - N/A   Mist
4:00 AM 53.6 °F - 51.8 °F 94% 29.95 in 1.2 mi Calm Calm - N/A   Mist
5:00 AM 55.4 °F - 51.8 °F 88% 29.95 in 1.2 mi Calm Calm - N/A   Mist
5:30 AM - - 53 °F % 29.95 in 0 mi North 43.7 mph - -  
6:00 AM 55.4 °F - 53.6 °F 94% 29.95 in 0.9 mi Calm Calm - N/A   Mist
7:00 AM 53.6 °F - 51.8 °F 94% 29.98 in 0.7 mi Calm Calm - N/A   Partly Cloudy
8:00 AM 59.0 °F - 53.6 °F 82% 29.98 in 1.1 mi Calm Calm - N/A   Partly Cloudy
8:30 AM 60 °F - 57 °F 85% 30.01 in 1 mi Calm Calm - -   Mist
9:00 AM 64.4 °F - 57.2 °F 77% 30.01 in 1.0 mi Calm Calm - N/A   Partly Cloudy
11:00 AM 77.0 °F - 59.0 °F 54% 30.04 in 1.9 mi Calm Calm - N/A   Haze
11:30 AM - - 55 °F % 29.99 in 0 mi NNE 69.0 mph - -  
12:00 PM 80.6 °F 80.3 °F 53.6 °F 39% 30.04 in 3.1 mi Calm Calm - N/A   Smoke
1:00 PM 82.4 °F - 50.0 °F 32% 30.01 in 3.7 mi West 3.5 mph - N/A   Unknown
2:00 PM 82.4 °F - 51.8 °F 35% 29.95 in 3.7 mi WNW 4.6 mph - N/A   Unknown
2:30 PM 83 °F - 52 °F 24% 29.91 in 2 mi NW 5.8 mph - -  
3:00 PM 84.2 °F 82.8 °F 53.6 °F 35% 29.95 in 3.7 mi WNW 6.9 mph - N/A   Unknown
4:00 PM 80.6 °F 80.3 °F 53.6 °F 39% 29.95 in 3.7 mi NW 6.9 mph - N/A   Scattered Clouds
5:00 PM 77.0 °F - 57.2 °F 50% 29.95 in 3.1 mi NW 3.5 mph - N/A   Haze
5:30 PM 73 °F - 56 °F 45% 29.91 in 2 mi 2.3 mph - -   Haze
6:00 PM 71.6 °F - 55.4 °F 57% 29.95 in 3.1 mi Variable 2.3 mph - N/A   Haze
7:00 PM 68.0 °F - 55.4 °F 64% 29.95 in 2.5 mi Calm Calm - N/A   Haze
8:00 PM 66.2 °F - 55.4 °F 68% 29.95 in 2.5 mi Variable 1.2 mph - N/A   Haze
8:30 PM 65 °F - 55 °F 62% 29.96 in 2 mi Calm Calm - -   Haze
9:00 PM 64.4 °F - 55.4 °F 73% 29.98 in 2.5 mi NNW 3.5 mph - N/A   Haze
10:00 PM 64.4 °F - 53.6 °F 68% 29.98 in 2.5 mi Variable 1.2 mph - N/A   Haze
11:00 PM 62.6 °F - 53.6 °F 72% 29.98 in 2.5 mi Calm Calm - N/A   Haze